Regional Weather Roundup
Issued by NWS

Home | Current Version | Previous Version | Graphics & Text | Print | Product List | Glossary On
Versions: 1 2 3 4 5 6 7 8 9 10 11 12 13 14 15 16 17 18 19 20 21 22 23 24 25 26 27 28 29 30 31 32 33 34 35 36 37 38 39 40 41 42 43 44 45 46 47 48 49 50
000
ASUS43 KFSD 061502
RWRSD

WEATHER ROUNDUP FOR SOUTH DAKOTA
NATIONAL WEATHER SERVICE SIOUX FALLS SD
1000 AM CDT WED MAY 06 2015

NOTE: "FAIR" INDICATES FEW OR NO CLOUDS BELOW 12,000 FEET WITH NO
SIGNIFICANT WEATHER AND/OR OBSTRUCTIONS TO VISIBILITY.


SDZ001>005-009-010-012>017-061600-
NORTHWEST AND NORTH CENTRAL SOUTH DAKOTA

CITY           SKY/WX    TMP DP  RH WIND       PRES   REMARKS
BUFFALO          N/A     56  54  93 SE10      29.65F
FAITH            N/A     57  54  89 SE13      29.71F
MOBRIDGE       RAIN      61  59  93 SE17      29.73F FOG
$$

SDZ012>016-024>037-041>051-057-063-072>074-061600-
SOUTHWEST AND SOUTH CENTRAL SOUTH DAKOTA

CITY           SKY/WX    TMP DP  RH WIND       PRES   REMARKS
RAPID CTY ARPT LGT RAIN  55  54  96 SE5       29.70F
PIERRE         CLOUDY    63  57  81 SE15      29.73F
CUSTER         LGT RAIN  48  46  93 NE3       29.74S FOG
ELLSWORTH AFB  LGT RAIN  55  55 100 SE5       29.70
PHILIP         CLOUDY    61  58  90 SE12      29.70F
PINE RIDGE     CLOUDY    58  52  80 SE8       29.69F
WINNER         CLOUDY    64  57  78 SE16      29.73F
$$

SDZ004>011-016>023-039-040-061600-
NORTHEAST SOUTH DAKOTA

CITY           SKY/WX    TMP DP  RH WIND       PRES   REMARKS
ABERDEEN       CLOUDY    65  61  87 SE15      29.81F FOG
WATERTOWN      CLOUDY    62  59  90 SE12G20   29.87F
BROOKINGS      CLOUDY    63  61  94 SE16      29.88F
SISSETON         N/A     58  58 100 S16       29.88F
$$

SDZ017-020-022-023-036>040-048>070-061600-
SOUTHEAST SOUTH DAKOTA

CITY           SKY/WX    TMP DP  RH WIND       PRES   REMARKS
SIOUX FALLS    LGT RAIN  65  60  84 SE17G23   29.84F
HURON          CLOUDY    63  60  90 SE15G23   29.80F
MITCHELL       LGT RAIN  63  61  93 SE18      29.80F FOG
YANKTON        CLOUDY    63  59  88 E14       29.78F
$$

ABBREVIATIONS USED IN REMARKS
   TC - TEMPERATURE IN CELSIUS
  WCI - WIND CHILL INDEX
   HX - HEAT INDEX
  VSB - VISIBILITY




USA.gov is the U.S. government's official web portal to all federal, state and local government web resources and services.